DW9064 Weather Reports


Display with metric or nautical units.
time (UTC)temp
F
wind
direction
speed
MPH
gust
MPH
rain 1hr
in
rain 24hr
in
rain mn
in
humidity
%
barometer
mb
20260905064748 46 357 4.0 8.0 0.00 0.01 0.01 98 1017.6
20260905063847 47 323 6.0 8.0 0.00 0.01 0.01 98 1017.5
20260905062047 47 318 6.0 8.0 0.00 0.01 0.01 98 1017.5
20260905061147 47 319 6.0 8.0 0.00 0.01 0.01 98 1017.5
20260905060248 47 329 6.0 8.0 0.00 0.01 0.01 97 1017.5
20260905055347 47 340 4.0 8.0 0.00 0.01 0.01 97 1017.4
20260905054447 47 327 5.0 8.0 0.00 0.01 0.01 97 1017.2
20260905053547 47 330 5.0 7.0 0.00 0.01 0.01 97 1017.2
20260905052648 48 318 5.0 8.0 0.00 0.01 0.01 97 1017.1
20260905050847 49 325 6.0 8.0 0.00 0.01 0.01 96 1017.1
20260905045947 49 317 5.0 8.0 0.00 0.01 0.01 95 1017.2
20260905045047 49 325 5.0 8.0 0.00 0.01 0.01 95 1017.3
20260905044147 49 324 4.0 8.0 0.00 0.01 0.01 94 1017.2
20260905043247 50 340 6.0 8.0 0.00 0.01 0.01 93 1017.2
20260905040547 51 340 3.0 7.0 0.00 0.01 0.01 93 1017.1
20260905035647 51 320 5.0 7.0 0.00 0.01 0.01 92 1017.0
20260905034747 52 331 4.0 7.0 0.00 0.01 0.01 91 1017.1
20260905033847 52 346 4.0 6.0 0.00 0.01 0.01 90 1017.1
20260905032947 52 326 4.0 7.0 0.00 0.01 0.01 90 1017.0
20260905032047 53 332 4.0 6.0 0.00 0.01 0.01 89 1016.9
20260905031147 53 351 3.0 5.0 0.00 0.01 0.01 89 1016.7
20260905030247 54 353 3.0 6.0 0.00 0.01 0.01 89 1016.6
20260905025347 54 331 4.0 7.0 0.00 0.01 0.01 88 1016.5
20260905023547 55 346 4.0 5.0 0.00 0.01 0.01 87 1016.3
20260905022647 56 351 4.0 5.0 0.00 0.01 0.01 86 1016.3
20260905021747 56 32 3.0 4.0 0.00 0.01 0.01 85 1016.3
20260905020847 57 8 1.0 4.0 0.00 0.01 0.01 85 1016.4
20260905015947 57 18 2.0 4.0 0.00 0.01 0.01 85 1016.3
20260905014147 58 39 2.0 4.0 0.00 0.01 0.01 83 1016.2
20260905013247 58 67 1.0 2.0 0.00 0.01 0.01 82 1016.1
20260905012347 58 1 0.0 3.0 0.00 0.01 0.01 81 1016.1
20260905011447 58 47 2.0 3.0 0.00 0.01 0.01 80 1015.8
20260905010547 58 87 0.0 4.0 0.00 0.01 0.01 79 1015.9
20260905005647 59 59 2.0 5.0 0.00 0.01 0.01 78 1015.7
20260905004747 60 91 2.0 6.0 0.00 0.01 0.01 76 1015.7
20260905003847 60 74 3.0 6.0 0.01 0.01 0.01 74 1015.6
20260905002947 61 79 2.0 5.0 0.01 0.01 0.01 73 1015.6
20260905001147 63 75 2.0 7.0 0.01 0.01 0.01 71 1015.6
20260905000248 63 81 4.0 7.0 0.01 0.01 0.01 71 1015.5
20260904235347 63 91 2.0 6.0 0.01 0.01 0.01 73 1015.5
20260904232647 59 52 3.0 8.0 0.00 0.00 0.00 78 1015.7
20260904231746 58 343 4.0 9.0 0.00 0.00 0.00 77 1015.5
20260904230847 58 341 4.0 12.0 0.00 0.00 0.00 73 1015.7
20260904225947 60 5 6.0 11.0 0.00 0.00 0.00 67 1015.7
20260904225046 63 42 5.0 11.0 0.00 0.00 0.00 55 1015.6
20260904224147 65 99 2.0 8.0 0.00 0.00 0.00 49 1015.5
20260904223246 65 178 4.0 8.0 0.00 0.00 0.00 48 1015.4
20260904222346 64 178 5.0 9.0 0.00 0.00 0.00 46 1015.2
20260904221446 64 201 4.0 8.0 0.00 0.00 0.00 46 1015.2
20260904220547 64 191 3.0 8.0 0.00 0.00 0.00 47 1015.2
20260904215647 63 172 5.0 8.0 0.00 0.00 0.00 50 1015.2
20260904214746 63 181 2.0 8.0 0.00 0.00 0.00 50 1015.2
20260904212946 64 208 2.0 8.0 0.00 0.00 0.00 49 1015.0
20260904212046 64 183 4.0 8.0 0.00 0.00 0.00 49 1014.8
20260904211146 64 182 4.0 8.0 0.00 0.00 0.00 47 1014.7
20260904210246 64 171 4.0 8.0 0.00 0.00 0.00 48 1014.7
20260904205346 64 176 4.0 9.0 0.00 0.00 0.00 47 1014.5
20260904204446 64 183 3.0 10.0 0.00 0.00 0.00 47 1014.5
20260904203546 63 196 2.0 10.0 0.00 0.00 0.00 48 1014.5
20260904202646 63 181 2.0 9.0 0.00 0.00 0.00 52 1014.5
20260904201746 63 197 2.0 12.0 0.00 0.00 0.00 49 1014.5
20260904200846 64 191 9.0 12.0 0.00 0.00 0.00 49 1014.5
20260904195946 63 178 5.0 15.0 0.00 0.00 0.00 50 1014.5
20260904195046 63 173 6.0 11.0 0.00 0.00 0.00 52 1014.4
20260904194146 62 173 7.0 14.0 0.00 0.00 0.00 56 1014.5
20260904193246 62 184 7.0 12.0 0.00 0.00 0.00 57 1014.6
20260904191446 61 182 7.0 15.0 0.00 0.00 0.00 58 1014.6
20260904190546 61 204 8.0 15.0 0.00 0.00 0.00 57 1014.5
20260904185646 61 201 8.0 15.0 0.00 0.00 0.00 56 1014.7
20260904184746 61 198 8.0 14.0 0.00 0.00 0.00 55 1014.6
20260904183846 62 190 7.0 17.0 0.00 0.00 0.00 55 1014.5
20260904182946 62 189 10.0 17.0 0.00 0.00 0.00 57 1014.4
20260904182046 61 188 8.0 12.0 0.00 0.00 0.00 59 1014.5
20260904181146 60 196 6.0 11.0 0.00 0.00 0.00 60 1014.3
20260904180246 60 179 8.0 11.0 0.00 0.00 0.00 61 1014.4
20260904175346 60 185 2.0 8.0 0.00 0.00 0.00 61 1014.5
20260904174446 58 178 5.0 8.0 0.00 0.00 0.00 65 1014.4
20260904172646 57 175 2.0 6.0 0.00 0.00 0.00 68 1014.6
20260904171746 56 163 3.0 4.0 0.00 0.00 0.00 68 1014.4
20260904170846 56 141 2.0 5.0 0.00 0.00 0.00 69 1014.5
20260904165946 56 118 0.0 4.0 0.00 0.00 0.00 74 1014.4
20260904165046 55 103 0.0 3.0 0.00 0.00 0.00 75 1014.4
20260904164146 54 137 1.0 4.0 0.00 0.00 0.00 77 1014.4
20260904163246 54 136 2.0 4.0 0.00 0.00 0.00 78 1014.3
20260904161446 53 100 1.0 4.0 0.00 0.00 0.00 81 1014.1
20260904160546 53 93 1.0 4.0 0.00 0.00 0.00 82 1014.2
20260904154746 52 99 0.0 4.0 0.00 0.00 0.00 83 1014.0
20260904153846 52 110 2.0 4.0 0.00 0.00 0.00 84 1013.8
20260904152946 51 83 1.0 4.0 0.00 0.00 0.00 86 1013.9
20260904152048 51 129 1.0 3.0 0.00 0.00 0.00 87 1013.8
20260904151146 51 174 1.0 2.0 0.00 0.00 0.00 87 1013.7
20260904150246 51 145 0.0 4.0 0.00 0.00 0.00 89 1013.6
20260904145346 51 121 0.0 3.0 0.00 0.01 0.00 90 1013.5
20260904144446 50 67 0.0 4.0 0.00 0.02 0.00 92 1013.2
20260904143546 49 53 1.0 3.0 0.00 0.02 0.00 93 1013.2
20260904142645 49 78 0.0 3.0 0.00 0.03 0.00 94 1013.1
20260904141745 48 64 0.0 3.0 0.00 0.04 0.00 94 1013.0
20260904140846 48 39 0.0 4.0 0.00 0.04 0.00 95 1012.9
20260904135945 47 334 2.0 4.0 0.00 0.04 0.00 94 1012.7
20260904135045 47 322 4.0 5.0 0.00 0.04 0.00 94 1012.6
20260904134145 47 321 4.0 5.0 0.00 0.04 0.00 94 1012.7
20260904133245 47 331 3.0 4.0 0.00 0.04 0.00 94 1012.6
20260904132346 47 316 3.0 4.0 0.00 0.04 0.00 93 1012.3
20260904131446 47 337 3.0 4.0 0.00 0.06 0.00 93 1012.2
20260904130545 47 285 3.0 4.0 0.00 0.06 0.00 93 1012.1
20260904125645 47 16 1.0 4.0 0.00 0.06 0.00 93 1012.0
20260904124745 47 1 2.0 5.0 0.00 0.07 0.00 93 1011.8
20260904123845 47 333 3.0 5.0 0.00 0.07 0.00 93 1011.9
20260904122945 47 327 4.0 4.0 0.00 0.07 0.00 93 1011.7
20260904121145 47 326 3.0 4.0 0.00 0.08 0.00 91 1011.5
20260904120245 48 335 2.0 3.0 0.00 0.08 0.00 91 1011.4
20260904115345 48 2 2.0 4.0 0.00 0.08 0.00 90 1011.2
20260904114445 48 41 0.0 4.0 0.00 0.09 0.00 91 1011.2
20260904113545 48 15 1.0 4.0 0.00 0.09 0.00 91 1011.1
20260904111745 48 58 1.0 3.0 0.00 0.09 0.00 91 1011.1
20260904110845 48 41 2.0 4.0 0.00 0.09 0.00 91 1010.9
20260904105945 47 16 2.0 4.0 0.00 0.09 0.00 91 1010.9
20260904104145 48 27 3.0 4.0 0.00 0.09 0.00 90 1011.0
20260904103245 48 29 1.0 4.0 0.00 0.09 0.00 90 1010.6
20260904102345 48 15 1.0 4.0 0.00 0.09 0.00 90 1010.5
20260904101445 48 355 2.0 5.0 0.00 0.09 0.00 90 1010.4
20260904100545 47 19 2.0 5.0 0.00 0.09 0.00 90 1010.4
20260904095645 47 14 4.0 5.0 0.00 0.09 0.00 90 1010.3
20260904094745 47 5 2.0 4.0 0.00 0.09 0.00 90 1010.7
20260904093845 47 350 2.0 6.0 0.00 0.09 0.00 90 1010.6
20260904092945 47 346 3.0 5.0 0.00 0.09 0.00 90 1010.4
20260904092045 46 16 2.0 4.0 0.00 0.09 0.00 89 1010.6
20260904091145 46 340 3.0 6.0 0.00 0.09 0.00 89 1010.4
20260904085345 46 343 2.0 5.0 0.00 0.09 0.00 89 1010.2
20260904083545 47 5 4.0 6.0 0.00 0.09 0.00 89 1010.3
20260904082645 47 348 4.0 6.0 0.00 0.09 0.00 89 1010.6
20260904080845 47 322 4.0 8.0 0.00 0.09 0.00 88 1010.4
20260904075945 47 324 4.0 8.0 0.00 0.09 0.00 87 1010.2
20260904074145 48 333 4.0 9.0 0.00 0.09 0.00 87 1010.4
20260904073245 48 354 5.0 7.0 0.00 0.09 0.00 86 1010.2
20260904072345 48 3 4.0 6.0 0.00 0.09 0.00 88 1010.5
20260904071445 47 12 2.0 6.0 0.00 0.09 0.00 88 1010.5
20260904070545 47 326 3.0 8.0 0.00 0.09 0.00 89 1010.4
20260904065645 47 317 5.0 7.0 0.00 0.09 0.09 88 1010.6